Regional Weather Roundup
Issued by NWS

Home | Current Version | Previous Version | Graphics & Text | Print | Product List | Glossary On
Versions: 1 2 3 4 5 6 7 8 9 10 11 12 13 14 15 16 17 18 19 20 21 22 23 24 25 26 27 28 29 30 31 32 33 34 35 36 37 38 39 40 41 42 43 44 45 46 47 48 49 50
742
ASUS45 KBOI 260510
RWRID

IDAHO REGIONAL WEATHER ROUNDUP
NATIONAL WEATHER SERVICE BOISE ID
1100 PM MDT TUE APR 25 2017

NOTE: "FAIR" INDICATES FEW OR NO CLOUDS BELOW 12000 FEET
WITH NO SIGNIFICANT WEATHER AND/OR OBSTRUCTIONS TO VISIBILITY

IDZ012-014-260600-
SOUTHWEST IDAHO


CITY           SKY/WX    TMP DP  RH WIND       PRES   REMARKS
BOISE          CLOUDY    52  33  48 W10       29.91R
CALDWELL       LGT RAIN  53  35  50 SW9G21    29.91R
MOUNTAIN HOME  MOCLDY    47  37  69 SW5       29.91R
$$

IDZ016-017-260600-
SOUTHCENTRAL IDAHO


CITY           SKY/WX    TMP DP  RH WIND       PRES   REMARKS
BURLEY         MOCLDY    43  31  62 S9        29.90S
JEROME         CLOUDY    47  32  56 SW7       29.91R
TWIN FALLS     MOCLDY    44  33  65 S7        29.92R
$$

IDZ019>023-260600-
SOUTHEAST IDAHO


CITY           SKY/WX    TMP DP  RH WIND       PRES   REMARKS
IDAHO FALLS    CLOUDY    43  32  65 S15       29.87R
POCATELLO      CLOUDY    44  30  57 S16       29.90S
REXBURG        CLOUDY    43  35  73 S9        29.85S
$$

IDZ006-010-011-018-031-032-260600-
CENTRAL IDAHO MOUNTAINS


CITY           SKY/WX    TMP DP  RH WIND       PRES   REMARKS
MCCALL         CLOUDY    41  29  62 S5        29.86R
HAILEY         CLOUDY    45  19  36 W6        29.89R
STANLEY          N/A     32  22  66 S3        29.89F
SALMON         CLOUDY    43  34  70 S3        29.84R
CHALLIS        MOCLDY    45  20  36 NW12      29.84S
$$

IDZ002-004-006-007-026-260600-
NORTHERN IDAHO


CITY           SKY/WX    TMP DP  RH WIND       PRES   REMARKS
LEWISTON       CLOUDY    51  43  74 CALM      29.82S
LOWELL           N/A     48  44  86 CALM      29.87R
COEUR D`ALENE  CLOUDY    41  39  93 N7        29.82F
MULLAN PASS    CLOUDY    32  31  96 VRB6      29.80S WCI  26
$$




USA.gov is the U.S. government's official web portal to all federal, state and local government web resources and services.